CZ-6A DEB

Satellite information

Favourite Embed

Satellite Type and Status

DEBRISIN ORBIT

Key statistics

Satellite CZ-6A DEB at a glance.

Uptime

1031

Days in orbit

Revolutions

≈ 14.1

Per day

Orbit

SSO

Sun Synchronous Orbit

Inclination

98.8

Latest

Satellite identification and parameters

Extended collection of information and parameters for CZ-6A DEB.

Object identification

Identified? True

Debris? True

Object name: CZ-6A DEB

International designator: 2022-151QH

Object number (NORAD): 54896

Object ID (CCSDS): 54896

Country: PEOPLES REPUBLIC OF CHINA (PRC)

Current information (Y/N): Y

RCS size: SMALL

Orbital parameters

Period: 102.453 minutes

Inclination: 98.8357 deg

SMA: 7252.882 km

Apoapsis: 922.095 km

Periapsis: 827.399 km

RAAN: 241.4899 deg

Eccentricy: 0.00652818

Argument of periapsis: 78.5467 deg

Mean anomaly: 282.3024 deg

Mean motion: 14.055193 rev/day

Mean motion (dot): 0.00000416 rev/day2

B* drag term: 0.00027684438 1/REarth

Two-line elements (TLE)

Creation date: Sept. 7, 2025, 3:09 a.m.

Reference frame: TEME

Reference center: EARTH

Epoch: Sept. 6, 2025, 9:36 p.m. UTC

TLE line 0: 0 CZ-6A DEB

TLE line 1: 1 54896U 22151QH 25249.90007363 .00000416 00000-0 27684-3 0 9994

TLE line 2: 2 54896 98.8357 241.4899 0065282 78.5467 282.3024 14.05519300141848

Live tracking on map

Real-time ground track for satellite CZ-6A DEB.

In-orbit conjunctions

A list of the most updated potential collisions computed for object CZ-6A DEB.

Target Orbit TCA Probability of collision Miss distance Type
THORAD AGENA D DEB SSO 2024-09-26 21:35:27 0.0007587994 750.0 (m) DEBRIS
CZ-4 R/B SSO 2024-07-28 01:03:02 0.001839753 102.0 (m) ROCKET BODY
DELTA 4 R/B MEO 2024-06-04 15:45:21 0.0002238278 96.0 (m) ROCKET BODY
CZ-6A DEB SSO 2024-05-28 04:49:19 0.0001483851 320.0 (m) DEBRIS

Associated space launch

Chinese satellite reported for atmospheric/ocean/environmental/spatial parameter research purposes, details TBD.

CZ-6A DEB was lifted into orbit during the mission ‘Long March 6A | Yunhai 3’, on board a Long March 6A space rocket.

The launch took place on Nov. 11, 2022, 10:52 p.m. from Launch Complex 9A.

For more information about the launch, click the button.

Launch to space Long March 6A | Yunhai 3
Long March 6A | Yunhai 3

Agency: N/A

Status: Launch Successful

Launch date: Nov. 11, 2022, 10:52 p.m. UTC

Rocket: Long March 6A

Launch pad: Launch Complex 9A

Location: Taiyuan Satellite Launch Center, People's Republic of China

...

Latest news about this satellite

There are no fresh news available about this satellite. Check back as we update our databases every day.


Newsletter sign-up

Weekly statistics, charts and insights to help you stay on top of the space industry.